Temperature
6 7 7 7 7 7 7 6 6 7 8 9 9 9 9 10 10 10 10 10 11 11 11 11 11 10 10 10 9 9 9 9 9 9 9 9 9 8 8 8 8 7 7 7
6 7 7 7 7 7 7 7 7 7 8 8 9 9 9 9 9 9 9 9 10 10 10 10 10 10 10 9 9 9 8 8 8 8 8 8 8 8 8 7 7 7 6 6
5 6 6 6 6 7 7 7 7 7 7 8 7 8 8 8 8 8 8 9 9 9 9 9 9 9 9 9 8 8 8 8 8 8 8 8 7 7 7 7 6 6 5 5
4 5 5 6 7 7 7 6 6 6 6 6 7 7 7 7 7 8 8 8 8 8 9 9 9 9 9 8 8 8 8 8 8 7 7 7 7 7 6 6 5 5 4 4
4 4 5 6 7 7 6 6 5 5 5 6 6 6 6 6 6 7 7 7 8 8 8 8 8 8 8 8 8 8 8 8 8 7 7 7 6 6 5 5 5 4 4 3
4 4 5 6 6 7 6 5 5 5 5 5 5 5 5 6 6 6 6 7 7 7 8 8 8 8 8 8 8 8 8 8 7 7 7 6 6 5 5 4 4 3 3 2
3 4 4 5 5 6 5 5 5 4 4 4 4 4 5 5 5 6 6 6 6 7 7 7 7 7 7 7 7 7 7 7 7 6 6 5 5 4 4 3 3 3 2 2
3 3 4 5 5 4 4 4 4 4 4 4 4 4 4 4 5 5 5 5 6 6 6 6 6 7 7 6 6 6 6 6 6 5 5 5 4 4 3 3 2 2 2 1
3 4 4 4 4 4 4 3 3 3 3 3 3 3 4 4 4 4 4 5 5 5 5 6 6 6 6 6 6 5 5 5 5 5 4 4 3 3 2 2 2 2 1 1
2 3 3 3 3 3 3 3 3 3 3 3 3 3 3 3 3 3 4 4 4 4 5 5 5 5 5 5 5 5 4 4 4 4 3 3 3 2 2 2 1 1 1 1
2 2 2 3 3 3 2 2 2 2 2 2 2 2 2 2 3 3 3 3 3 4 4 4 4 4 4 4 4 4 4 4 4 3 3 3 2 2 2 1 1 1 1 1
1 2 2 2 2 2 2 2 2 1 1 1 1 1 2 2 2 2 2 2 3 3 3 3 4 4 4 4 4 4 3 3 3 3 2 2 2 1 1 1 1 1 1 0
3 3 3 2 2 1 1 1 1 1 1 1 1 1 1 1 1 1 1 2 2 2 2 3 3 3 3 3 3 3 3 3 2 2 2 1 1 1 1 1 1 0 0 0
3 2 2 2 1 1 1 0 0 0 0 0 0 0 0 0 1 1 1 1 1 1 2 2 2 2 2 2 2 2 2 2 2 1 1 1 1 1 0 0 0 0 0 0
2 2 2 1 1 0 0 -0 -0 -0 -0 -0 -0 -0 -0 -0 0 0 0 0 0 0 1 1 1 1 1 1 1 1 1 1 1 1 1 0 0 0 0 -0 -0 -0 0 0
2 2 1 1 1 0 -0 -0 -1 -1 -1 -1 -1 -1 -1 -1 -1 -0 -0 -0 -0 -0 -0 0 0 0 0 1 1 1 1 1 1 1 0 0 -0 -0 -0 -0 -0 -0 -0 -0
1 1 1 1 0 -0 -0 -1 -1 -1 -2 -2 -2 -1 -1 -2 -1 -1 -1 -1 -1 -1 -1 -1 -1 -1 -0 -0 -0 -0 -0 0 -0 -0 -0 -0 -0 -1 -1 -1 -1 -1 -1 -1
2 1 1 1 0 -0 -1 -1 -1 -1 -2 -2 -2 -2 -2 -2 -2 -2 -2 -2 -2 -1 -1 -1 -1 -1 -1 -1 -1 -1 -1 -1 -1 -1 -1 -1 -1 -1 -1 -1 -1 -1 -1 -1
1 1 1 0 -0 -1 -1 -1 -1 -1 -2 -2 -2 -2 -2 -2 -2 -2 -2 -2 -2 -2 -2 -2 -2 -2 -2 -2 -2 -2 -2 -2 -2 -2 -2 -2 -2 -2 -2 -2 -2 -2 -2 -2
1 1 1 0 -0 -0 -1 -1 -1 -2 -2 -2 -2 -3 -3 -3 -3 -3 -3 -3 -2 -3 -3 -2 -2 -2 -2 -2 -2 -2 -2 -2 -2 -2 -2 -2 -2 -2 -2 -2 -2 -2 -2 -2
1 1 0 0 -0 -0 -1 -1 -1 -2 -2 -2 -3 -3 -3 -3 -3 -3 -3 -3 -3 -3 -3 -3 -3 -3 -3 -3 -3 -3 -3 -3 -3 -3 -3 -3 -3 -3 -3 -3 -3 -3 -3 -3
1 1 0 -0 -0 -1 -1 -1 -2 -2 -2 -2 -2 -3 -3 -3 -3 -3 -3 -3 -3 -3 -3 -3 -3 -3 -3 -3 -3 -3 -3 -3 -3 -3 -4 -4 -4 -3 -3 -3 -4 -4 -4 -4
1 0 -0 -1 -1 -1 -1 -1 -2 -2 -2 -2 -3 -3 -3 -3 -3 -3 -3 -3 -3 -3 -3 -3 -3 -3 -4 -4 -4 -4 -4 -4 -4 -4 -4 -4 -4 -4 -4 -4 -4 -4 -4 -4
0 -0 -1 -1 -1 -1 -1 -1 -2 -2 -2 -3 -3 -3 -3 -3 -3 -3 -3 -3 -4 -4 -4 -4 -4 -4 -4 -4 -4 -4 -4 -4 -4 -4 -4 -4 -4 -5 -5 -5 -5 -5 -5 -5
-0 -1 -1 -1 -1 -1 -2 -2 -2 -2 -3 -3 -3 -3 -3 -3 -3 -3 -4 -4 -4 -4 -4 -4 -4 -4 -4 -4 -4 -4 -4 -4 -5 -5 -5 -5 -5 -5 -5 -5 -5 -5 -5 -5
-1 -1 -1 -1 -2 -2 -3 -3 -3 -3 -3 -3 -3 -3 -3 -3 -4 -4 -4 -4 -4 -4 -4 -4 -4 -5 -5 -5 -5 -5 -5 -5 -5 -5 -5 -5 -5 -5 -5 -5 -5 -5 -5 -5
-1 -1 -2 -2 -2 -3 -3 -3 -3 -3 -4 -4 -4 -3 -4 -4 -4 -4 -4 -4 -4 -4 -4 -4 -5 -5 -5 -5 -5 -5 -5 -5 -5 -5 -5 -5 -5 -5 -5 -6 -6 -6 -6 -6
Wind_Speed
3 3 3 4 5 5 6 6 6 6 5 5 3 3 2 3 2 2 3 3 3 4 4 4 5 5 6 6 7 8 9 8 8 7 7 7 7 7 6 6 6 5 5 5
2 2 2 3 5 6 6 6 6 5 6 5 3 1 2 2 2 2 4 5 5 5 5 5 6 6 6 7 8 8 9 9 8 8 8 8 8 7 7 6 5 5 6 5
2 3 3 4 5 6 5 4 5 7 6 2 2 2 1 2 2 2 4 5 5 5 5 6 6 6 8 8 7 8 9 9 9 9 9 8 8 8 7 6 5 5 6 6
1 2 4 5 3 2 3 1 1 1 2 3 2 1 1 1 2 4 5 5 6 6 6 5 4 5 6 6 7 9 9 9 9 10 9 8 8 8 7 5 6 5 6 6
2 2 5 5 2 1 2 1 3 1 3 4 3 1 2 4 4 4 4 5 5 6 6 5 4 4 4 5 7 8 9 10 10 10 10 10 9 8 6 6 5 5 5 6
3 3 5 4 3 2 2 1 3 2 3 4 4 1 4 6 6 6 5 4 5 5 4 4 4 2 3 5 7 9 10 9 9 10 10 11 10 7 5 5 6 6 5 6
4 4 6 4 4 1 3 4 1 2 2 3 1 3 6 7 6 6 6 5 5 4 4 5 4 1 3 4 7 7 6 6 8 9 9 9 8 6 6 6 6 6 6 5
5 5 7 2 2 2 2 1 1 2 2 3 4 5 6 6 6 7 7 6 5 4 5 5 3 1 2 4 4 3 5 7 7 8 8 7 8 7 7 7 7 6 6 5
6 5 1 1 3 1 1 0 2 2 4 4 5 6 6 6 6 6 6 6 5 4 5 5 4 1 2 3 2 3 5 6 6 7 7 7 8 8 7 7 7 6 6 7
2 3 2 2 2 1 1 1 2 3 4 4 5 6 6 6 6 6 6 6 5 5 5 5 4 3 2 2 2 3 4 5 5 6 6 6 6 7 7 8 8 7 8 8
2 2 1 1 1 0 2 2 3 4 4 5 6 7 6 6 6 6 6 5 5 5 6 6 4 4 3 2 1 3 4 4 5 5 6 7 7 7 8 8 9 9 8 7
6 6 4 4 2 1 2 3 5 6 6 6 6 7 7 7 6 6 6 6 6 5 5 5 4 4 3 2 2 3 3 4 4 5 5 5 6 6 10 11 13 15 13 10
4 3 3 3 2 1 2 4 5 6 6 7 6 6 7 7 6 6 6 6 6 6 5 5 4 3 3 2 2 3 4 4 4 4 5 5 5 6 6 7 13 15 16 16
5 4 2 2 2 2 3 4 5 5 5 6 6 6 6 6 6 6 6 6 6 5 5 4 3 3 4 3 2 3 4 5 5 4 5 5 6 6 6 5 5 6 10 16
5 4 4 3 2 2 3 4 5 6 6 6 6 6 6 7 7 7 6 5 5 4 4 3 3 4 4 3 3 3 3 3 4 4 4 5 5 5 6 6 6 5 4 7
5 3 3 3 4 4 3 4 5 6 6 7 7 7 7 7 7 7 6 5 4 5 4 4 4 4 4 3 3 3 3 4 4 4 4 4 5 5 6 6 6 6 7 6
5 4 4 4 5 5 5 5 5 6 7 7 8 8 7 7 7 6 6 5 4 4 4 4 4 4 3 3 3 3 3 3 4 3 4 4 5 5 5 6 6 6 6 7
7 6 5 5 5 5 6 6 6 6 7 7 7 6 6 7 7 7 7 5 5 5 4 4 4 4 3 3 3 2 2 3 3 3 3 4 4 4 5 5 6 6 5 5
5 6 5 6 5 5 6 6 6 6 6 6 6 6 6 6 7 7 6 5 5 6 5 4 5 3 3 4 4 2 3 3 3 3 3 4 4 4 4 5 5 5 5 4
5 4 5 5 5 5 6 6 6 6 6 6 6 7 7 7 6 6 5 5 5 5 4 4 4 3 4 4 4 2 3 3 3 3 3 3 3 3 3 4 4 4 4 4
5 5 5 6 6 7 7 7 6 7 7 6 6 7 8 7 6 5 5 6 5 4 4 6 4 3 3 4 4 3 3 3 3 3 3 3 3 3 3 3 3 3 3 3
5 5 6 6 6 7 7 6 6 7 8 7 7 7 7 8 7 6 6 6 6 6 4 4 4 5 5 5 2 3 3 3 3 3 3 3 3 3 3 3 3 3 3 3
4 5 5 6 6 7 7 6 6 7 7 8 8 8 8 7 5 5 6 4 4 6 4 4 5 7 7 3 2 3 3 3 3 3 3 3 3 3 3 3 3 3 3 3
4 4 5 5 4 5 7 7 7 6 7 7 8 8 7 6 6 5 6 7 8 8 5 6 8 8 6 3 3 3 3 3 3 3 3 3 3 3 3 3 3 3 3 4
4 4 4 4 5 6 7 7 7 7 7 6 7 7 6 5 6 6 5 6 8 8 5 6 8 8 4 3 3 4 4 4 4 3 3 3 3 3 4 3 3 4 4 4
3 4 4 5 5 5 5 5 5 5 5 6 6 5 5 5 6 6 5 6 7 8 6 5 5 5 4 4 4 4 4 4 4 4 3 4 4 4 4 4 5 4 4 4
3 3 3 4 4 4 4 4 5 6 5 6 7 6 5 5 5 5 6 5 5 5 5 4 4 4 4 4 4 4 4 4 4 4 4 4 4 4 4 5 4 4 4 5
Wind_Direction
240 242 196 216 229 207 197 197 204 228 236 264 274 277 293 308 321 331 317 308 289 270 254 241 231 217 202 193 181 170 167 171 175 164 157 153 151 150 148 150 155 154 148 148
314 299 230 251 246 225 221 215 223 241 258 261 267 313 341 332 331 329 318 307 294 279 265 250 235 222 208 201 190 176 177 181 171 162 160 161 160 158 156 156 155 154 159 163
279 333 23 279 247 216 208 211 206 227 251 295 309 323 311 321 350 334 317 313 305 295 277 259 244 225 213 207 190 182 184 180 173 169 169 169 165 163 167 167 164 167 172 172
154 58 232 249 288 207 167 54 46 92 339 328 284 248 65 42 345 319 314 312 315 305 293 280 262 242 220 198 187 188 187 184 178 174 173 168 168 174 174 168 173 178 183 180
146 210 275 294 328 58 148 63 6 28 355 350 339 85 354 360 346 310 302 299 294 293 285 281 276 256 211 196 189 190 194 191 185 178 175 175 180 181 175 172 179 183 182 181
153 195 236 255 303 317 122 201 355 36 16 358 24 6 299 328 332 327 319 309 309 313 316 311 297 270 207 202 196 204 203 195 183 178 179 184 185 177 171 174 183 181 188 191
180 223 259 269 295 14 172 230 357 27 6 357 335 260 288 310 322 327 322 317 322 331 335 321 312 284 225 217 219 218 192 174 175 180 182 180 174 170 170 172 176 186 195 202
173 205 246 296 74 147 202 336 358 342 333 316 297 297 304 310 317 326 327 325 328 332 330 330 337 345 256 250 242 191 172 176 180 180 178 173 170 173 173 176 185 195 204 213
192 209 203 103 130 123 113 25 327 319 311 309 304 303 307 306 309 316 320 321 322 321 321 328 338 341 269 274 246 187 177 183 181 176 175 170 174 177 180 188 198 203 208 219
205 231 203 156 129 88 49 322 309 309 308 304 299 300 303 303 303 306 308 314 317 316 314 314 317 316 276 268 230 183 185 183 174 173 176 177 181 184 192 198 205 209 213 221
212 222 146 189 164 319 339 339 325 316 307 301 296 297 297 298 299 299 301 304 306 303 300 298 304 301 293 273 206 193 190 184 181 183 184 189 196 201 205 211 209 209 214 212
208 202 189 220 221 243 314 311 309 309 308 307 299 296 298 295 295 297 297 299 302 299 296 298 299 298 300 289 231 206 202 196 195 194 194 196 204 220 224 224 228 229 226 219
179 171 184 210 219 246 276 294 302 300 296 300 301 297 296 294 294 298 298 300 298 296 296 299 301 304 312 297 252 227 223 213 205 202 202 204 208 216 232 236 236 238 238 237
163 144 173 199 229 259 278 294 298 300 297 297 298 300 299 297 297 298 298 297 295 293 293 295 298 304 317 310 274 249 239 226 216 212 209 211 214 218 221 227 233 238 238 240
178 174 194 218 244 271 293 304 308 306 308 308 306 305 305 301 298 299 300 302 301 297 295 295 293 303 317 306 285 270 253 238 225 216 214 217 216 217 222 226 233 239 236 241
176 176 195 223 252 273 287 293 296 300 305 307 309 308 305 300 297 299 303 305 298 292 295 294 291 302 308 296 285 276 265 258 245 228 220 221 220 223 227 229 232 235 238 236
168 206 221 239 255 269 271 272 277 287 293 295 299 302 301 302 301 302 301 300 290 283 285 282 284 296 299 291 278 269 268 271 261 245 232 229 228 228 230 232 235 238 240 236
194 202 207 221 245 263 272 274 277 282 284 287 296 300 299 298 296 297 296 298 296 290 283 277 282 288 296 299 287 277 271 269 265 257 249 241 241 234 233 235 238 245 250 249
195 206 220 229 236 247 260 267 271 274 278 283 286 287 286 287 289 292 295 293 290 290 287 283 291 290 288 294 300 279 275 274 273 268 261 262 260 247 242 243 244 246 246 242
203 217 231 244 247 245 254 261 266 272 274 275 278 283 287 288 288 288 286 282 272 266 276 284 282 277 281 286 298 284 282 277 274 275 270 263 263 261 255 252 252 252 249 248
220 234 246 253 259 258 256 260 264 270 275 273 271 275 280 285 287 284 281 284 280 264 270 283 276 270 275 281 287 275 276 280 279 277 278 274 271 271 268 264 265 265 263 261
225 236 250 257 261 269 269 264 261 266 273 273 270 272 276 281 282 277 263 260 273 278 275 270 267 271 277 284 269 266 270 273 275 276 277 279 280 280 278 274 270 269 267 264
234 243 255 262 264 270 279 274 266 266 267 268 269 270 269 268 267 268 280 269 260 274 273 263 270 276 281 276 263 262 266 268 268 269 271 273 274 276 279 281 279 277 277 276
246 257 264 270 272 276 280 281 278 271 267 269 266 263 263 271 271 251 252 275 279 277 266 267 275 276 276 257 255 255 255 258 260 262 265 267 269 271 274 277 280 281 280 279
254 263 270 279 278 273 275 284 289 284 280 277 275 269 259 250 257 270 266 265 273 277 269 269 273 274 264 246 247 250 252 253 256 256 253 261 266 270 272 273 275 278 278 276
257 266 267 264 263 269 277 282 283 285 286 289 288 279 269 261 259 265 268 265 264 273 268 261 260 263 250 245 247 251 252 264 274 270 260 262 264 267 269 271 273 272 274 276
279 280 283 288 283 276 278 279 281 287 287 287 289 287 281 278 275 272 270 269 267 264 260 256 250 246 245 246 247 248 248 250 254 256 256 255 257 260 263 266 268 269 270 272
Height
1488 1486 1486 1486 1485 1486 1489 1491 1493 1488 1486 1482 1480 1479 1478 1477 1477 1476 1476 1476 1475 1475 1475 1475 1475 1475 1475 1476 1477 1479 1481 1483 1485 1487 1489 1491 1493 1494 1495 1496 1496 1496 1496 1495
1489 1485 1485 1485 1483 1484 1485 1485 1486 1485 1484 1480 1479 1478 1478 1477 1476 1476 1475 1475 1474 1473 1473 1472 1472 1472 1472 1472 1474 1475 1477 1479 1481 1484 1486 1487 1489 1490 1491 1492 1492 1492 1492 1491
1494 1489 1487 1489 1482 1481 1481 1481 1482 1483 1482 1479 1479 1478 1477 1477 1476 1475 1474 1473 1472 1471 1470 1469 1468 1468 1468 1469 1470 1471 1473 1475 1477 1480 1482 1484 1485 1486 1487 1488 1488 1488 1488 1487
1495 1493 1494 1486 1479 1478 1479 1481 1481 1481 1480 1479 1478 1477 1476 1476 1475 1473 1472 1471 1469 1468 1467 1466 1465 1465 1465 1465 1466 1467 1469 1471 1474 1476 1478 1480 1481 1482 1483 1484 1484 1484 1484 1484
1496 1496 1491 1483 1479 1479 1480 1482 1482 1481 1480 1478 1477 1476 1476 1475 1474 1472 1470 1469 1467 1466 1464 1463 1462 1461 1461 1461 1462 1463 1465 1467 1469 1472 1474 1475 1477 1478 1479 1480 1480 1480 1480 1480
1496 1494 1491 1483 1479 1477 1480 1483 1482 1480 1480 1478 1477 1478 1476 1474 1472 1470 1468 1467 1465 1463 1461 1460 1459 1458 1458 1458 1459 1460 1461 1464 1466 1468 1469 1471 1473 1474 1475 1475 1476 1476 1476 1476
1495 1494 1488 1482 1478 1478 1485 1483 1482 1480 1479 1479 1478 1478 1476 1473 1471 1469 1467 1464 1462 1460 1459 1457 1456 1455 1454 1454 1455 1457 1458 1460 1461 1463 1465 1466 1468 1469 1470 1471 1471 1471 1472 1472
1492 1493 1490 1479 1478 1481 1482 1481 1480 1479 1478 1478 1476 1474 1473 1471 1469 1467 1464 1462 1460 1458 1456 1455 1453 1452 1451 1452 1452 1453 1454 1455 1457 1458 1460 1461 1462 1463 1465 1465 1466 1467 1467 1468
1484 1484 1480 1478 1479 1480 1480 1479 1479 1478 1477 1475 1474 1472 1470 1468 1466 1464 1462 1460 1458 1456 1454 1453 1451 1450 1449 1449 1449 1449 1450 1451 1452 1453 1454 1456 1457 1458 1459 1460 1461 1461 1462 1463
1480 1479 1478 1478 1478 1478 1478 1478 1477 1476 1475 1473 1471 1469 1467 1465 1463 1461 1459 1458 1456 1454 1452 1451 1449 1448 1447 1446 1446 1445 1446 1446 1447 1448 1449 1450 1452 1453 1454 1455 1456 1456 1457 1458
1478 1477 1477 1477 1477 1477 1476 1476 1475 1473 1472 1470 1468 1466 1464 1462 1460 1458 1456 1454 1452 1451 1449 1448 1446 1445 1444 1443 1442 1442 1442 1442 1443 1444 1445 1446 1447 1448 1449 1450 1451 1452 1452 1453
1475 1473 1474 1475 1475 1475 1474 1473 1472 1470 1468 1467 1465 1463 1460 1458 1456 1454 1452 1450 1449 1447 1445 1444 1443 1441 1441 1440 1439 1439 1438 1438 1439 1439 1440 1441 1442 1443 1444 1445 1446 1446 1447 1448
1469 1470 1471 1472 1472 1472 1471 1470 1468 1467 1465 1463 1461 1459 1457 1454 1452 1450 1448 1446 1444 1443 1441 1440 1439 1438 1437 1436 1435 1435 1434 1434 1435 1435 1436 1436 1437 1438 1439 1440 1440 1441 1442 1442
1467 1468 1469 1469 1469 1469 1468 1466 1465 1463 1461 1459 1457 1454 1452 1450 1448 1446 1444 1442 1440 1438 1437 1435 1434 1433 1433 1432 1431 1431 1430 1430 1430 1431 1431 1432 1432 1433 1433 1434 1435 1435 1436 1437
1464 1466 1466 1466 1466 1465 1464 1463 1461 1459 1457 1455 1452 1450 1448 1445 1443 1441 1440 1438 1436 1434 1433 1431 1430 1429 1428 1427 1427 1426 1426 1426 1426 1426 1426 1426 1427 1427 1428 1428 1429 1429 1430 1431
1462 1463 1463 1463 1463 1462 1461 1460 1458 1455 1453 1451 1448 1446 1444 1441 1439 1437 1435 1434 1432 1430 1429 1427 1426 1425 1424 1423 1422 1422 1421 1421 1421 1421 1421 1421 1422 1422 1422 1423 1423 1423 1424 1425
1459 1459 1460 1460 1459 1458 1457 1456 1455 1452 1450 1447 1445 1442 1440 1437 1435 1433 1432 1430 1428 1426 1425 1423 1422 1420 1419 1418 1418 1417 1417 1416 1416 1416 1416 1416 1416 1417 1417 1417 1417 1418 1418 1419
1456 1456 1457 1456 1456 1455 1454 1453 1451 1449 1447 1444 1442 1439 1437 1434 1432 1430 1428 1426 1424 1422 1421 1419 1418 1416 1415 1414 1413 1412 1412 1411 1411 1411 1411 1411 1411 1411 1411 1411 1411 1412 1412 1412
1453 1453 1453 1453 1452 1451 1450 1449 1447 1445 1443 1441 1438 1436 1433 1431 1429 1427 1425 1423 1421 1419 1417 1416 1414 1413 1412 1410 1409 1408 1408 1407 1406 1406 1406 1406 1406 1406 1406 1406 1406 1406 1406 1406
1450 1450 1450 1449 1449 1448 1446 1445 1443 1441 1440 1437 1435 1432 1430 1428 1425 1423 1421 1419 1418 1416 1414 1412 1411 1409 1408 1407 1406 1405 1404 1403 1402 1402 1402 1401 1401 1401 1401 1400 1400 1400 1400 1400
1447 1447 1446 1446 1445 1444 1442 1441 1439 1437 1435 1433 1431 1428 1426 1424 1422 1420 1417 1416 1414 1413 1411 1409 1407 1406 1404 1403 1402 1401 1400 1399 1399 1398 1397 1397 1396 1396 1396 1395 1395 1395 1394 1394
1443 1443 1443 1442 1441 1439 1438 1436 1435 1433 1431 1429 1427 1425 1422 1420 1418 1416 1414 1412 1410 1409 1407 1405 1404 1402 1401 1400 1399 1397 1396 1396 1395 1394 1393 1393 1392 1391 1391 1390 1390 1389 1389 1388
1440 1439 1439 1438 1436 1434 1433 1432 1430 1428 1426 1424 1422 1420 1418 1416 1414 1412 1410 1409 1407 1405 1403 1402 1400 1399 1397 1396 1395 1394 1393 1392 1391 1390 1389 1389 1388 1387 1386 1386 1385 1384 1384 1383
1436 1435 1434 1433 1431 1429 1428 1426 1425 1423 1421 1419 1417 1416 1414 1411 1409 1408 1406 1404 1403 1401 1399 1398 1396 1395 1394 1392 1391 1390 1389 1388 1387 1386 1385 1384 1384 1383 1382 1381 1380 1379 1378 1378
1432 1431 1430 1428 1426 1424 1423 1421 1419 1417 1416 1414 1412 1411 1409 1407 1405 1403 1401 1400 1398 1396 1395 1393 1392 1391 1390 1388 1387 1386 1385 1384 1383 1382 1382 1381 1380 1379 1378 1376 1375 1374 1373 1372
1427 1426 1425 1423 1422 1420 1418 1416 1414 1412 1410 1408 1407 1405 1404 1402 1400 1398 1396 1395 1393 1392 1390 1389 1388 1386 1385 1384 1383 1383 1382 1381 1380 1379 1378 1377 1376 1375 1373 1372 1371 1370 1369 1368
1423 1422 1420 1419 1417 1415 1413 1411 1409 1407 1405 1403 1401 1400 1398 1397 1395 1393 1391 1390 1388 1387 1385 1384 1383 1382 1381 1380 1379 1378 1378 1377 1376 1375 1374 1373 1371 1370 1369 1368 1366 1365 1364 1363